| time (UTC) | temp F | wind direction | speed MPH | gust MPH | rain 1hr in | rain 24hr in | rain mn in | humidity % | barometer mb |
| 20260903124514 | 53 | 209 | 0.0 | 0.0 | 0.00 | 0.01 | 0.00 | 46 | 1003.5 |
| 20260903123006 | 54 | 209 | 0.0 | 0.0 | 0.00 | 0.01 | 0.00 | 45 | 1003.5 |
| 20260903121556 | 54 | 209 | 0.0 | 0.0 | 0.00 | 0.01 | 0.00 | 44 | 1003.3 |
| 20260903120100 | 55 | 209 | 0.0 | 0.0 | 0.00 | 0.01 | 0.00 | 43 | 1003.3 |
| 20260903114545 | 55 | 209 | 0.0 | 0.0 | 0.00 | 0.01 | 0.00 | 40 | 1003.2 |
| 20260903113044 | 56 | 209 | 0.0 | 0.0 | 0.00 | 0.01 | 0.00 | 40 | 1003.2 |
| 20260903111534 | 56 | 208 | 0.0 | 0.0 | 0.00 | 0.01 | 0.00 | 38 | 1003.2 |
| 20260903110022 | 57 | 191 | 0.0 | 0.0 | 0.00 | 0.01 | 0.00 | 38 | 1003.3 |
| 20260903104514 | 58 | 191 | 0.0 | 0.0 | 0.00 | 0.01 | 0.00 | 33 | 1003.2 |
| 20260903103015 | 58 | 180 | 0.0 | 0.0 | 0.00 | 0.01 | 0.00 | 32 | 1003.1 |
| 20260903101507 | 58 | 192 | 0.0 | 0.0 | 0.00 | 0.01 | 0.00 | 34 | 1003.2 |
| 20260903100100 | 57 | 250 | 0.0 | 0.0 | 0.00 | 0.01 | 0.00 | 35 | 1002.9 |
| 20260903094554 | 57 | 260 | 0.0 | 0.0 | 0.00 | 0.01 | 0.00 | 40 | 1002.9 |
| 20260903093045 | 58 | 272 | 0.0 | 0.0 | 0.00 | 0.01 | 0.00 | 41 | 1002.7 |
| 20260903091528 | 59 | 273 | 0.0 | 0.0 | 0.00 | 0.01 | 0.00 | 39 | 1002.6 |
| 20260903090027 | 59 | 273 | 0.0 | 0.0 | 0.00 | 0.01 | 0.00 | 38 | 1002.6 |
| 20260903084514 | 60 | 273 | 0.0 | 0.0 | 0.00 | 0.01 | 0.00 | 36 | 1002.7 |
| 20260903083105 | 60 | 273 | 0.0 | 0.0 | 0.00 | 0.01 | 0.00 | 35 | 1002.7 |
| 20260903081527 | 61 | 282 | 0.0 | 0.0 | 0.00 | 0.01 | 0.00 | 36 | 1002.7 |
| 20260903080031 | 62 | 292 | 0.0 | 0.0 | 0.00 | 0.01 | 0.00 | 37 | 1002.6 |
| 20260903074514 | 63 | 292 | 0.0 | 0.0 | 0.00 | 0.01 | 0.00 | 36 | 1002.6 |
| 20260903073003 | 63 | 298 | 0.0 | 0.0 | 0.00 | 0.01 | 0.00 | 33 | 1002.4 |
| 20260903071606 | 64 | 300 | 0.0 | 0.0 | 0.00 | 0.01 | 0.00 | 34 | 1002.3 |
| 20260903070050 | 65 | 308 | 0.0 | 6.0 | 0.00 | 0.01 | 0.00 | 32 | 1002.2 |
| 20260903064543 | 65 | 306 | 5.0 | 12.0 | 0.00 | 0.01 | 0.00 | 31 | 1002.2 |
| 20260903063029 | 66 | 309 | 1.0 | 9.0 | 0.00 | 0.01 | 0.00 | 30 | 1002.0 |
| 20260903061540 | 66 | 311 | 2.0 | 8.0 | 0.00 | 0.01 | 0.00 | 28 | 1002.0 |
| 20260903060016 | 66 | 301 | 0.0 | 0.0 | 0.00 | 0.01 | 0.00 | 27 | 1001.8 |
| 20260903054516 | 66 | 283 | 0.0 | 0.0 | 0.00 | 0.01 | 0.01 | 29 | 1001.6 |
| 20260903053016 | 67 | 272 | 0.0 | 0.0 | 0.00 | 0.01 | 0.01 | 30 | 1001.7 |
| 20260903051516 | 67 | 272 | 0.0 | 0.0 | 0.00 | 0.01 | 0.01 | 25 | 1001.6 |
| 20260903050026 | 68 | 273 | 0.0 | 0.0 | 0.00 | 0.01 | 0.01 | 25 | 1001.7 |
| 20260903044516 | 68 | 269 | 0.0 | 0.0 | 0.00 | 0.01 | 0.01 | 25 | 1001.8 |
| 20260903043008 | 69 | 269 | 0.0 | 0.0 | 0.00 | 0.01 | 0.01 | 25 | 1001.7 |
| 20260903041500 | 69 | 279 | 0.0 | 7.0 | 0.00 | 0.01 | 0.01 | 24 | 1001.8 |
| 20260903040054 | 69 | 293 | 2.0 | 9.0 | 0.00 | 0.01 | 0.01 | 25 | 1001.5 |
| 20260903034557 | 69 | 299 | 0.0 | 6.0 | 0.00 | 0.01 | 0.01 | 25 | 1001.2 |
| 20260903033055 | 69 | 300 | 0.0 | 0.0 | 0.00 | 0.01 | 0.01 | 25 | 1001.1 |
| 20260903031603 | 70 | 296 | 0.0 | 0.0 | 0.00 | 0.01 | 0.01 | 25 | 1001.2 |
| 20260903030052 | 71 | 296 | 0.0 | 1.0 | 0.00 | 0.01 | 0.01 | 24 | 1001.1 |
| 20260903024545 | 72 | 304 | 0.0 | 4.0 | 0.00 | 0.01 | 0.01 | 24 | 1000.9 |
| 20260903023038 | 73 | 245 | 2.0 | 8.0 | 0.00 | 0.01 | 0.01 | 23 | 1000.9 |
| 20260903021526 | 74 | 295 | 0.0 | 7.0 | 0.00 | 0.01 | 0.01 | 24 | 1000.9 |
| 20260903020017 | 76 | 209 | 0.0 | 0.0 | 0.00 | 0.01 | 0.01 | 21 | 1000.7 |
| 20260903014508 | 76 | 202 | 0.0 | 8.0 | 0.00 | 0.01 | 0.01 | 17 | 1000.6 |
| 20260903013101 | 77 | 189 | 0.0 | 6.0 | 0.00 | 0.01 | 0.01 | 17 | 1000.6 |
| 20260903011557 | 78 | 167 | 5.0 | 13.0 | 0.00 | 0.01 | 0.01 | 15 | 1000.8 |
| 20260903010048 | 78 | 182 | 2.0 | 13.0 | 0.00 | 0.01 | 0.01 | 15 | 1000.9 |
| 20260903004502 | 79 | 157 | 6.0 | 16.0 | 0.00 | 0.01 | 0.01 | 15 | 1001.0 |
| 20260903003100 | 79 | 194 | 3.0 | 13.0 | 0.00 | 0.01 | 0.01 | 15 | 1001.1 |
| 20260903001557 | 80 | 192 | 6.0 | 15.0 | 0.00 | 0.01 | 0.01 | 15 | 1001.1 |
| 20260903000045 | 80 | 180 | 8.0 | 15.0 | 0.00 | 0.01 | 0.01 | 15 | 1001.1 |
| 20260902234536 | 80 | 175 | 12.0 | 20.0 | 0.00 | 0.01 | 0.01 | 15 | 1000.9 |
| 20260902233036 | 81 | 171 | 4.0 | 18.0 | 0.00 | 0.01 | 0.01 | 17 | 1001.1 |
| 20260902231636 | 82 | 191 | 13.0 | 28.0 | 0.00 | 0.01 | 0.01 | 16 | 1001.1 |
| 20260902230025 | 82 | 223 | 4.0 | 15.0 | 0.00 | 0.01 | 0.01 | 15 | 1001.5 |
| 20260902224516 | 82 | 180 | 14.0 | 25.0 | 0.00 | 0.01 | 0.01 | 15 | 1001.3 |
| 20260902223009 | 83 | 225 | 9.0 | 26.0 | 0.00 | 0.01 | 0.01 | 15 | 1001.3 |
| 20260902221600 | 83 | 150 | 12.0 | 26.0 | 0.00 | 0.01 | 0.01 | 18 | 1001.4 |
| 20260902220101 | 82 | 205 | 11.0 | 20.0 | 0.00 | 0.01 | 0.01 | 17 | 1001.6 |
| 20260902214552 | 82 | 152 | 2.0 | 19.0 | 0.00 | 0.01 | 0.01 | 17 | 1001.7 |
| 20260902213045 | 83 | 184 | 11.0 | 20.0 | 0.00 | 0.01 | 0.01 | 15 | 1001.9 |
| 20260902211534 | 84 | 150 | 8.0 | 22.0 | 0.00 | 0.01 | 0.01 | 17 | 1001.8 |
| 20260902210030 | 84 | 164 | 17.0 | 30.0 | 0.00 | 0.01 | 0.01 | 16 | 1001.8 |
| 20260902204518 | 84 | 144 | 11.0 | 31.0 | 0.00 | 0.01 | 0.01 | 22 | 1001.9 |
| 20260902203004 | 83 | 158 | 17.0 | 36.0 | 0.00 | 0.01 | 0.01 | 22 | 1002.1 |
| 20260902201556 | 83 | 200 | 16.0 | 30.0 | 0.00 | 0.01 | 0.01 | 23 | 1002.2 |
| 20260902200054 | 82 | 151 | 11.0 | 33.0 | 0.00 | 0.01 | 0.01 | 24 | 1002.4 |
| 20260902194537 | 82 | 168 | 20.0 | 28.0 | 0.00 | 0.01 | 0.01 | 24 | 1002.4 |
| 20260902193026 | 82 | 224 | 11.0 | 28.0 | 0.00 | 0.01 | 0.01 | 25 | 1002.6 |
| 20260902191532 | 81 | 149 | 19.0 | 28.0 | 0.00 | 0.01 | 0.01 | 26 | 1002.8 |
| 20260902190005 | 81 | 142 | 19.0 | 30.0 | 0.00 | 0.01 | 0.01 | 27 | 1003.0 |
| 20260902184601 | 80 | 186 | 15.0 | 35.0 | 0.00 | 0.01 | 0.01 | 29 | 1003.2 |
| 20260902183045 | 80 | 167 | 16.0 | 37.0 | 0.00 | 0.01 | 0.01 | 27 | 1003.6 |
| 20260902181543 | 79 | 155 | 20.0 | 34.0 | 0.00 | 0.01 | 0.01 | 28 | 1003.6 |
| 20260902180038 | 78 | 130 | 20.0 | 28.0 | 0.00 | 0.01 | 0.01 | 31 | 1003.6 |
| 20260902174528 | 77 | 163 | 13.0 | 30.0 | 0.00 | 0.02 | 0.01 | 34 | 1003.8 |
| 20260902173017 | 76 | 171 | 14.0 | 30.0 | 0.00 | 0.02 | 0.01 | 37 | 1003.9 |
| 20260902171515 | 76 | 153 | 16.0 | 37.0 | 0.00 | 0.02 | 0.01 | 37 | 1004.2 |
| 20260902170005 | 74 | 186 | 17.0 | 25.0 | 0.00 | 0.02 | 0.01 | 36 | 1004.1 |
| 20260902164553 | 74 | 184 | 23.0 | 35.0 | 0.00 | 0.02 | 0.01 | 36 | 1004.1 |
| 20260902163059 | 73 | 201 | 17.0 | 32.0 | 0.00 | 0.02 | 0.01 | 40 | 1004.0 |
| 20260902161541 | 72 | 94 | 11.0 | 21.0 | 0.00 | 0.02 | 0.01 | 45 | 1004.1 |
| 20260902160038 | 71 | 157 | 8.0 | 19.0 | 0.00 | 0.02 | 0.01 | 47 | 1004.2 |
| 20260902154528 | 71 | 113 | 9.0 | 18.0 | 0.00 | 0.03 | 0.01 | 49 | 1004.2 |
| 20260902153022 | 70 | 144 | 8.0 | 23.0 | 0.01 | 0.03 | 0.01 | 50 | 1004.1 |
| 20260902151506 | 68 | 111 | 8.0 | 21.0 | 0.01 | 0.03 | 0.01 | 52 | 1004.1 |
| 20260902150001 | 67 | 184 | 12.0 | 22.0 | 0.01 | 0.03 | 0.01 | 55 | 1004.1 |
| 20260902144552 | 66 | 103 | 9.0 | 19.0 | 0.01 | 0.03 | 0.01 | 58 | 1003.8 |
| 20260902143039 | 65 | 161 | 8.0 | 18.0 | 0.00 | 0.02 | 0.00 | 60 | 1003.8 |
| 20260902141529 | 63 | 152 | 9.0 | 17.0 | 0.00 | 0.02 | 0.00 | 64 | 1003.8 |
| 20260902140019 | 62 | 169 | 5.0 | 15.0 | 0.00 | 0.02 | 0.00 | 67 | 1003.7 |
| 20260902134508 | 61 | 188 | 0.0 | 8.0 | 0.00 | 0.02 | 0.00 | 67 | 1003.4 |
| 20260902133008 | 62 | 173 | 0.0 | 10.0 | 0.00 | 0.02 | 0.00 | 65 | 1003.4 |
| 20260902131523 | 62 | 148 | 1.0 | 6.0 | 0.00 | 0.02 | 0.00 | 61 | 1003.6 |
| 20260902130032 | 62 | 180 | 0.0 | 10.0 | 0.00 | 0.02 | 0.00 | 60 | 1003.6 |